When you browse on this site, cookies collect data to enhance your experience and personalize the content and advertising you see.
Visit our Privacy Policy to learn more. By continuing to use the site, you agree to this use of cookies and data.
  • In Österreich
  • Länderverzeichnis
  • Für 7 Tage
  • Wassertemperatur
  • Satellitenkarten
  • Wetterkarte
  • News
  • Widgets
  • user-avatar
    Anmelden

    Stündliche Wetter Talica

    Heute, 18 Februar, Montag

    Zeit Temperatur Niederschläge Wind Luftdruck Luftfeuchtigkeit
    00:00 -5°C° 0 mm 4 m/S 744 mmHg 82%
    01:00 -7°C° 0 mm 4 m/S 745 mmHg 84%
    02:00 -6°C° 0 mm 3 m/S 746 mmHg 85%
    03:00 -6°C° 0 mm 3 m/S 746 mmHg 87%
    04:00 -7°C° 0 mm 3 m/S 747 mmHg 88%
    05:00 -7°C° 0 mm 3 m/S 747 mmHg 90%
    06:00 -7°C° 0 mm 3 m/S 748 mmHg 90%
    07:00 -6°C° 0 mm 2 m/S 748 mmHg 90%
    08:00 -7°C° 0 mm 2 m/S 749 mmHg 90%
    09:00 -6°C° 0 mm 2 m/S 749 mmHg 87%
    10:00 -5°C° 0 mm 2 m/S 750 mmHg 84%
    11:00 -4°C° 0 mm 2 m/S 750 mmHg 80%
    12:00 -4°C° 0 mm 2 m/S 750 mmHg 78%
    13:00 -3°C° 0 mm 2 m/S 750 mmHg 75%
    14:00 0°C° 0 mm 1 m/S 750 mmHg 72%
    15:00 -1°C° 0 mm 1 m/S 750 mmHg 76%
    16:00 -2°C° 0 mm 1 m/S 750 mmHg 80%
    17:00 -3°C° 0 mm 1 m/S 750 mmHg 84%
    18:00 -4°C° 0 mm 1 m/S 750 mmHg 85%
    19:00 -4°C° 0 mm 1 m/S 750 mmHg 85%
    20:00 -4°C° 0 mm 1 m/S 750 mmHg 86%
    21:00 -6°C° 0 mm 2 m/S 750 mmHg 86%
    22:00 -6°C° 0 mm 2 m/S 749 mmHg 86%
    23:00 -6°C° 0 mm 2 m/S 749 mmHg 86%

    Morgen, 19 Februar, Dienstag

    Zeit Temperatur Niederschläge Wind Luftdruck Luftfeuchtigkeit
    00:00 -7°C° 0 mm 3 m/S 749 mmHg 85%
    01:00 -7°C° 0 mm 3 m/S 749 mmHg 83%
    02:00 -6°C° 0 mm 3 m/S 748 mmHg 82%
    03:00 -7°C° 0 mm 4 m/S 747 mmHg 80%
    04:00 -7°C° 0 mm 4 m/S 747 mmHg 79%
    05:00 -7°C° 0 mm 4 m/S 746 mmHg 78%
    06:00 -7°C° 0 mm 4 m/S 746 mmHg 78%
    07:00 -5°C° 0 mm 4 m/S 745 mmHg 79%
    08:00 -5°C° 0 mm 4 m/S 745 mmHg 79%
    09:00 -5°C° 0 mm 5 m/S 745 mmHg 78%
    10:00 -4°C° 0 mm 5 m/S 744 mmHg 78%
    11:00 -1°C° 0 mm 5 m/S 744 mmHg 77%
    12:00 -1°C° 0 mm 5 m/S 743 mmHg 78%
    13:00 -1°C° 0 mm 5 m/S 742 mmHg 78%
    14:00 0°C° 0 mm 5 m/S 742 mmHg 79%
    15:00 -1°C° 0 mm 5 m/S 741 mmHg 81%
    16:00 -1°C° 0 mm 5 m/S 741 mmHg 83%
    17:00 -2°C° 0 mm 5 m/S 740 mmHg 85%
    18:00 -2°C° 0 mm 5 m/S 740 mmHg 86%
    19:00 -2°C° 0 mm 5 m/S 739 mmHg 87%
    20:00 -2°C° 0 mm 5 m/S 739 mmHg 89%
    21:00 -1°C° 0 mm 5 m/S 738 mmHg 89%
    22:00 -1°C° 0 mm 5 m/S 737 mmHg 90%
    23:00 -1°C° 0 mm 5 m/S 736 mmHg 91%

    übermorgen, 20 Februar, Mittwoch

    Zeit Temperatur Niederschläge Wind Luftdruck Luftfeuchtigkeit
    00:00 -1°C° 0 mm 5 m/S 736 mmHg 91%
    01:00 0°C° 0 mm 5 m/S 735 mmHg 91%
    02:00 0°C° 0 mm 5 m/S 735 mmHg 92%
    03:00 0°C° 0.3 mm 5 m/S 734 mmHg 92%
    04:00 0°C° 0.3 mm 5 m/S 734 mmHg 92%
    05:00 0°C° 0.3 mm 5 m/S 733 mmHg 92%
    06:00 0°C° 0.1 mm 5 m/S 734 mmHg 92%
    07:00 0°C° 0.1 mm 5 m/S 734 mmHg 93%
    08:00 0°C° 0.1 mm 5 m/S 734 mmHg 93%
    09:00 0°C° 0.2 mm 5 m/S 734 mmHg 91%
    10:00 0°C° 0.2 mm 5 m/S 733 mmHg 89%
    11:00 0°C° 0.2 mm 5 m/S 733 mmHg 88%
    12:00 0°C° 0.1 mm 5 m/S 733 mmHg 87%
    13:00 0°C° 0.1 mm 5 m/S 733 mmHg 86%
    14:00 +1°C° 0.1 mm 5 m/S 733 mmHg 86%
    15:00 0°C° 0.3 mm 5 m/S 732 mmHg 86%
    16:00 0°C° 0.3 mm 5 m/S 732 mmHg 86%
    17:00 0°C° 0.3 mm 5 m/S 732 mmHg 86%
    18:00 -1°C° 0.4 mm 5 m/S 732 mmHg 82%
    19:00 -2°C° 0.4 mm 6 m/S 732 mmHg 79%
    20:00 -2°C° 0.4 mm 6 m/S 732 mmHg 75%
    21:00 -4°C° 0 mm 6 m/S 732 mmHg 77%
    22:00 -5°C° 0 mm 5 m/S 732 mmHg 79%
    23:00 -6°C° 0 mm 5 m/S 732 mmHg 81%

    21 Februar, Donnerstag

    Zeit Temperatur Niederschläge Wind Luftdruck Luftfeuchtigkeit
    00:00 -6°C° 0.3 mm 5 m/S 733 mmHg 82%
    01:00 -6°C° 0.3 mm 6 m/S 733 mmHg 83%
    02:00 -5°C° 0.3 mm 6 m/S 733 mmHg 84%
    03:00 -5°C° 0.2 mm 6 m/S 734 mmHg 82%
    04:00 -6°C° 0.2 mm 6 m/S 734 mmHg 81%
    05:00 -6°C° 0.2 mm 6 m/S 734 mmHg 80%
    06:00 -7°C° 0.1 mm 7 m/S 734 mmHg 78%
    07:00 -7°C° 0.1 mm 7 m/S 735 mmHg 77%
    08:00 -8°C° 0.1 mm 7 m/S 735 mmHg 75%
    09:00 -8°C° 0.1 mm 7 m/S 736 mmHg 75%
    10:00 -8°C° 0.1 mm 7 m/S 737 mmHg 75%
    11:00 -8°C° 0.1 mm 7 m/S 738 mmHg 74%
    12:00 -8°C° 0.1 mm 7 m/S 738 mmHg 73%
    13:00 -8°C° 0.1 mm 7 m/S 739 mmHg 72%
    14:00 -8°C° 0.1 mm 7 m/S 740 mmHg 71%
    15:00 -9°C° 0.1 mm 7 m/S 741 mmHg 72%
    16:00 -9°C° 0.1 mm 6 m/S 742 mmHg 73%
    17:00 -9°C° 0.1 mm 6 m/S 743 mmHg 74%
    18:00 -10°C° 0 mm 6 m/S 744 mmHg 74%
    19:00 -11°C° 0 mm 6 m/S 745 mmHg 74%
    20:00 -11°C° 0 mm 5 m/S 745 mmHg 74%
    21:00 -12°C° 0 mm 5 m/S 746 mmHg 74%
    22:00 -12°C° 0 mm 5 m/S 747 mmHg 74%
    23:00 -12°C° 0 mm 5 m/S 748 mmHg 75%

    22 Februar, Freitag

    Zeit Temperatur Niederschläge Wind Luftdruck Luftfeuchtigkeit
    00:00 -13°C° 0 mm 5 m/S 749 mmHg 75%
    01:00 -13°C° 0 mm 5 m/S 749 mmHg 75%
    02:00 -13°C° 0 mm 5 m/S 750 mmHg 76%
    03:00 -14°C° 0 mm 5 m/S 751 mmHg 76%
    04:00 -14°C° 0 mm 5 m/S 751 mmHg 76%
    05:00 -14°C° 0 mm 5 m/S 752 mmHg 77%
    06:00 -14°C° 0 mm 5 m/S 753 mmHg 76%
    07:00 -14°C° 0 mm 5 m/S 753 mmHg 75%
    08:00 -14°C° 0 mm 5 m/S 754 mmHg 75%
    09:00 -13°C° 0 mm 5 m/S 755 mmHg 72%
    10:00 -12°C° 0 mm 5 m/S 755 mmHg 69%
    11:00 -11°C° 0 mm 5 m/S 756 mmHg 66%
    12:00 -11°C° 0 mm 5 m/S 756 mmHg 65%
    13:00 -10°C° 0 mm 6 m/S 756 mmHg 64%
    14:00 -10°C° 0 mm 6 m/S 757 mmHg 63%
    15:00 -10°C° 0 mm 5 m/S 757 mmHg 67%
    16:00 -11°C° 0 mm 5 m/S 757 mmHg 70%
    17:00 -10°C° 0 mm 4 m/S 758 mmHg 74%
    18:00 -11°C° 0 mm 4 m/S 758 mmHg 76%
    19:00 -11°C° 0 mm 4 m/S 759 mmHg 78%
    20:00 -11°C° 0 mm 4 m/S 759 mmHg 80%
    21:00 -11°C° 0 mm 4 m/S 760 mmHg 82%
    22:00 -12°C° 0 mm 3 m/S 760 mmHg 84%
    23:00 -12°C° 0 mm 3 m/S 760 mmHg 87%

    23 Februar, Samstag

    Zeit Temperatur Niederschläge Wind Luftdruck Luftfeuchtigkeit
    00:00 -10°C° 0 mm 2 m/S 760 mmHg 88%
    01:00 -12°C° 0 mm 2 m/S 760 mmHg 90%
    02:00 -10°C° 0 mm 1 m/S 760 mmHg 91%
    03:00 -10°C° 0 mm 1 m/S 760 mmHg 89%
    04:00 -9°C° 0 mm 1 m/S 760 mmHg 87%
    05:00 -9°C° 0 mm 1 m/S 760 mmHg 85%
    06:00 -9°C° 0 mm 2 m/S 759 mmHg 80%
    07:00 -9°C° 0 mm 2 m/S 759 mmHg 76%
    08:00 -9°C° 0 mm 3 m/S 759 mmHg 71%
    09:00 -8°C° 0.1 mm 3 m/S 758 mmHg 72%
    10:00 -9°C° 0.1 mm 4 m/S 758 mmHg 73%
    11:00 -9°C° 0.1 mm 4 m/S 757 mmHg 74%
    12:00 -8°C° 0.4 mm 4 m/S 756 mmHg 79%
    13:00 -8°C° 0.4 mm 4 m/S 756 mmHg 84%
    14:00 -8°C° 0.4 mm 4 m/S 755 mmHg 89%
    15:00 -8°C° 0.3 mm 4 m/S 755 mmHg 89%
    16:00 -8°C° 0.3 mm 4 m/S 754 mmHg 89%
    17:00 -8°C° 0.3 mm 4 m/S 754 mmHg 89%
    18:00 -7°C° 0.1 mm 4 m/S 754 mmHg 90%
    19:00 -6°C° 0.1 mm 3 m/S 754 mmHg 91%
    20:00 -6°C° 0.1 mm 3 m/S 754 mmHg 92%
    21:00 -6°C° 0 mm 3 m/S 753 mmHg 93%
    22:00 -6°C° 0 mm 3 m/S 753 mmHg 93%
    23:00 -5°C° 0 mm 3 m/S 753 mmHg 94%
    Mehr zeigen